PE4KH-1 Weather Reports


Display with metric or nautical units.
time (UTC)temp
F
wind
direction
speed
MPH
gust
MPH
rain 1hr
in
rain 24hr
in
rain mn
in
humidity
%
barometer
mb
20180426035306 52 0.0 0.0 0.00 0.00 0.00 86 1002.6
20180426034303 52 0.0 0.0 0.00 0.00 0.00 86 1002.4
20180426033303 52 0.0 0.0 0.00 0.00 0.00 86 1002.4
20180426032304 52 0.0 0.0 0.00 0.00 0.00 85 1002.2
20180426031304 52 0.0 0.0 0.00 0.00 0.00 85 1002.2
20180426030306 52 0.0 0.0 0.00 0.00 0.00 85 1002.2
20180426025303 52 0.0 0.0 0.00 0.00 0.00 86 1002.2
20180426024302 52 0.0 0.0 0.00 0.00 0.00 85 1002.2
20180426023304 52 0.0 0.0 0.00 0.00 0.00 84 1002.2
20180426022304 52 0.0 0.0 0.00 0.00 0.00 83 1001.9
20180426021306 52 0.0 0.0 0.00 0.00 0.00 82 1001.9
20180426020304 52 0.0 0.0 0.00 0.00 0.00 83 1001.7
20180426015302 52 0.0 0.0 0.00 0.00 0.00 83 1001.7
20180426014303 52 0.0 0.0 0.00 0.00 0.00 83 1001.9
20180426013306 52 0.0 0.0 0.00 0.00 0.00 83 1001.7
20180426012306 52 0.0 0.0 0.00 0.00 0.00 83 1001.7
20180426011302 52 0.0 0.0 0.00 0.00 0.00 86 1001.7
20180426010304 52 0.0 0.0 0.00 0.00 0.00 85 1001.7
20180426005305 52 0.0 0.0 0.00 0.00 0.00 83 1001.5
20180426004302 53 0.0 0.0 0.00 0.00 0.00 83 1001.7
20180426003306 54 0.0 0.0 0.00 0.00 0.00 83 1001.7
20180426002307 54 0.0 0.0 0.00 0.00 0.00 82 1001.5
20180426001306 54 0.0 0.0 0.00 0.00 0.00 81 1001.5
20180426000304 55 0.0 0.0 0.00 0.00 0.00 82 1001.7
20180425235304 55 0.0 0.0 0.00 0.00 0.00 82 1001.7
20180425234306 55 0.0 0.0 0.00 0.00 0.00 82 1001.7
20180425233304 55 0.0 0.0 0.00 0.00 0.00 81 1001.5
20180425232306 55 0.0 0.0 0.00 0.00 0.00 80 1001.7
20180425231306 55 0.0 0.0 0.00 0.00 0.00 80 1001.7
20180425230304 56 0.0 0.0 0.00 0.00 0.00 80 1001.7
20180425225303 55 0.0 0.0 0.00 0.00 0.00 80 1001.7
20180425224303 55 0.0 0.0 0.00 0.00 0.00 80 1001.7
20180425223306 55 0.0 0.0 0.00 0.00 0.00 80 1001.7
20180425222302 55 0.0 0.0 0.00 0.00 0.00 78 1001.7
20180425221306 55 0.0 0.0 0.00 0.00 0.00 77 1001.5
20180425220303 56 0.0 0.0 0.00 0.00 0.00 77 1001.7
20180425215305 56 0.0 0.0 0.00 0.00 0.00 76 1001.7
20180425214309 57 0.0 0.0 0.00 0.00 0.00 72 1001.7
20180425213305 57 0.0 0.0 0.00 0.00 0.00 70 1001.7
20180425212305 57 0.0 0.0 0.00 0.00 0.00 70 1001.7
20180425211306 57 0.0 0.0 0.00 0.00 0.00 70 1001.9
20180425210306 57 0.0 0.0 0.00 0.00 0.00 70 1001.9
20180425205304 57 0.0 0.0 0.00 0.00 0.00 69 1001.9
20180425204306 58 0.0 0.0 0.00 0.00 0.00 69 1002.2
20180425203302 57 0.0 0.0 0.00 0.00 0.00 70 1002.2
20180425202302 57 0.0 0.0 0.00 0.00 0.00 69 1002.2
20180425201305 57 0.0 0.0 0.00 0.00 0.00 68 1002.2
20180425200304 58 0.0 0.0 0.00 0.00 0.00 67 1001.9
20180425195304 58 0.0 0.0 0.00 0.00 0.00 66 1001.9
20180425194305 58 0.0 0.0 0.00 0.00 0.00 65 1001.9
20180425193305 58 0.0 0.0 0.00 0.00 0.00 65 1001.7
20180425192302 58 0.0 0.0 0.00 0.00 0.00 64 1001.7
20180425191307 59 0.0 0.0 0.00 0.00 0.00 63 1001.5
20180425190306 59 0.0 0.0 0.00 0.00 0.00 63 1001.5
20180425185302 60 0.0 0.0 0.00 0.00 0.00 61 1001.3
20180425184306 60 0.0 0.0 0.00 0.00 0.00 58 1001.3
20180425183303 60 0.0 0.0 0.00 0.00 0.00 57 1001.0
20180425182306 60 0.0 0.0 0.00 0.00 0.00 58 1001.0
20180425181305 60 0.0 0.0 0.00 0.00 0.00 58 1000.8
20180425180306 60 0.0 0.0 0.00 0.00 0.00 58 1001.0
20180425175304 60 0.0 0.0 0.00 0.00 0.00 56 1001.0
20180425174306 61 0.0 0.0 0.00 0.00 0.00 55 1001.0
20180425173306 61 0.0 0.0 0.00 0.00 0.00 53 1001.3
20180425172305 61 0.0 0.0 0.00 0.00 0.00 52 1001.3
20180425171305 61 0.0 0.0 0.00 0.00 0.00 51 1001.3
20180425170304 61 0.0 0.0 0.00 0.00 0.00 50 1001.0
20180425165303 61 0.0 0.0 0.00 0.00 0.00 49 1001.3
20180425164305 62 0.0 0.0 0.00 0.00 0.00 48 1001.3
20180425163304 61 0.0 0.0 0.00 0.00 0.00 47 1001.3
20180425162302 62 0.0 0.0 0.00 0.00 0.00 47 1001.3
20180425161307 62 0.0 0.0 0.00 0.00 0.00 47 1001.3
20180425160302 62 0.0 0.0 0.00 0.00 0.00 48 1001.3
20180425155302 62 0.0 0.0 0.00 0.00 0.00 49 1001.5
20180425154307 62 0.0 0.0 0.00 0.00 0.00 50 1001.5
20180425153306 62 0.0 0.0 0.00 0.00 0.00 50 1001.5
20180425152303 62 0.0 0.0 0.00 0.00 0.00 50 1001.7
20180425151306 62 0.0 0.0 0.00 0.00 0.00 48 1001.7
20180425150306 63 0.0 0.0 0.00 0.00 0.00 50 1001.7
20180425145313 63 0.0 0.0 0.00 0.00 0.00 48 1001.7
20180425144303 63 0.0 0.0 0.00 0.00 0.00 49 1001.7
20180425143303 62 0.0 0.0 0.00 0.00 0.00 50 1001.9
20180425142305 63 0.0 0.0 0.00 0.00 0.00 54 1001.9
20180425141302 63 0.0 0.0 0.00 0.00 0.00 55 1001.9
20180425140304 62 0.0 0.0 0.00 0.00 0.00 54 1001.9
20180425135304 61 0.0 0.0 0.00 0.00 0.00 57 1001.9
20180425134306 61 0.0 0.0 0.00 0.00 0.00 59 1001.9
20180425133306 61 0.0 0.0 0.00 0.00 0.00 59 1001.9
20180425132311 62 0.0 0.0 0.00 0.00 0.00 66 1001.9
20180425131306 61 0.0 0.0 0.00 0.00 0.00 66 1001.9
20180425130302 60 0.0 0.0 0.00 0.00 0.00 69 1001.9
20180425125302 60 0.0 0.0 0.00 0.00 0.00 70 1002.2
20180425124307 59 0.0 0.0 0.00 0.00 0.00 65 1002.2
20180425123303 60 0.0 0.0 0.00 0.00 0.00 70 1001.9
20180425122306 60 0.0 0.0 0.00 0.00 0.00 68 1001.7
20180425121302 61 0.0 0.0 0.00 0.00 0.00 60 1001.9
20180425120303 60 0.0 0.0 0.00 0.00 0.00 61 1001.7
20180425115305 60 0.0 0.0 0.00 0.00 0.00 62 1001.9
20180425114303 60 0.0 0.0 0.00 0.00 0.00 62 1001.7
20180425113305 59 0.0 0.0 0.00 0.00 0.00 64 1001.7
20180425112304 60 0.0 0.0 0.00 0.00 0.00 64 1001.7
20180425111305 59 0.0 0.0 0.00 0.00 0.00 66 1001.7
20180425105302 60 0.0 0.0 0.00 0.00 0.00 64 1001.7
20180425104303 60 0.0 0.0 0.00 0.00 0.00 65 1001.7
20180425103303 59 0.0 0.0 0.00 0.00 0.00 65 1001.7
20180425102306 59 0.0 0.0 0.00 0.00 0.00 64 1001.7
20180425101306 59 0.0 0.0 0.00 0.00 0.00 64 1001.7
20180425100302 59 0.0 0.0 0.00 0.00 0.00 64 1001.7
20180425095305 59 0.0 0.0 0.00 0.00 0.00 63 1001.7
20180425094303 60 0.0 0.0 0.00 0.00 0.00 63 1001.5
20180425093302 60 0.0 0.0 0.00 0.00 0.00 62 1001.3
20180425092305 60 0.0 0.0 0.00 0.00 0.00 65 1001.3
20180425091306 59 0.0 0.0 0.00 0.00 0.00 65 1001.0
20180425090303 59 0.0 0.0 0.00 0.00 0.00 65 1000.8
20180425085305 59 0.0 0.0 0.00 0.00 0.00 68 1000.8
20180425084306 58 0.0 0.0 0.00 0.00 0.00 70 1000.8
20180425083302 57 0.0 0.0 0.00 0.00 0.00 71 1000.6
20180425082306 57 0.0 0.0 0.00 0.00 0.00 74 1000.6
20180425081305 56 0.0 0.0 0.00 0.00 0.00 76 1000.4
20180425080306 56 0.0 0.0 0.00 0.00 0.00 75 1000.4
20180425075306 56 0.0 0.0 0.00 0.00 0.00 78 1000.2
20180425074303 56 0.0 0.0 0.00 0.00 0.00 78 999.9
20180425073305 56 0.0 0.0 0.00 0.00 0.00 78 999.9
20180425072305 56 0.0 0.0 0.00 0.00 0.00 78 999.5
20180425071306 56 0.0 0.0 0.00 0.00 0.00 78 999.9
20180425070305 56 0.0 0.0 0.00 0.00 0.00 78 999.5
20180425065304 56 0.0 0.0 0.00 0.00 0.00 78 999.3
20180425064305 56 0.0 0.0 0.00 0.00 0.00 79 999.3
20180425063303 56 0.0 0.0 0.00 0.00 0.00 79 999.0
20180425062304 56 0.0 0.0 0.00 0.00 0.00 79 998.8
20180425061306 56 0.0 0.0 0.00 0.00 0.00 81 998.6
20180425060306 56 0.0 0.0 0.00 0.00 0.00 82 998.6
20180425055310 56 0.0 0.0 0.00 0.00 0.00 81 998.6
20180425054302 56 0.0 0.0 0.00 0.00 0.00 81 998.2
20180425053303 56 0.0 0.0 0.00 0.00 0.00 81 998.2
20180425052304 56 0.0 0.0 0.00 0.00 0.00 83 997.9
20180425051305 57 0.0 0.0 0.00 0.00 0.00 84 997.7
20180425050302 57 0.0 0.0 0.00 0.00 0.00 86 997.3
20180425045302 57 0.0 0.0 0.00 0.00 0.00 86 997.3
20180425044302 57 0.0 0.0 0.00 0.00 0.00 86 997.0
20180425043304 58 0.0 0.0 0.00 0.00 0.00 85 996.8
20180425042302 58 0.0 0.0 0.00 0.00 0.00 84 996.8
20180425041302 58 0.0 0.0 0.00 0.00 0.00 85 996.8
20180425040305 58 0.0 0.0 0.00 0.00 0.00 85 996.6